Location: Godzisko
(49.9648°N, 19.4576°E)
Time: 06:14:11
(UTC+00:00)

Cosmos 1943 Rocket - Pass Details

Date: 20 April 2021
Orbit: 812 x 843 km, 71.0° (Epoch: 06 May)

Event Time Altitude Azimuth Distance (km) Brightness Sun altitude
Exits shadow 01:47:45 14° 184° (S) 2,159 3.9 -16.2°
Maximum altitude 01:52:23 53° 111° (ESE) 1,034 2.8 -15.7°
Drops below altitude 10° 01:57:51 10° 37° (NE) 2,464 5.9 -15.0°
Sets 02:00:21 0° 32° (NNE) 3,398 6.8 -14.7°
